FW8306 Weather Reports


time (UTC)temp
C
wind
direction
speed
KPH
gust
KPH
rain 1hr
cm
rain 24hr
cm
rain mn
cm
humidity
%
barometer
mb
20260506073054 11 0.0 0.0 0.00 0.00 0.00 54 1011.7
20260506071552 11 0.0 0.0 0.00 0.00 0.00 54 1011.7
20260506061556 8 0.0 0.0 0.00 0.00 0.00 57 1011.9
20260506050113 7 0.0 0.0 0.00 0.00 0.00 60 1012.1
20260506044554 6 0.0 0.0 0.00 0.00 0.00 61 1012.2
20260506043050 6 0.0 0.0 0.00 0.00 0.00 61 1012.2
20260506041601 6 0.0 0.0 0.00 0.00 0.00 61 1012.1
20260506040057 6 0.0 0.0 0.00 0.00 0.00 60 1012.0
20260506034601 6 0.0 0.0 0.00 0.00 0.00 60 1012.0
20260506033053 6 0.0 0.0 0.00 0.00 0.00 61 1012.0
20260506031552 6 0.0 0.0 0.00 0.00 0.00 60 1012.0
20260506030056 6 0.0 0.0 0.00 0.00 0.00 59 1012.1
20260506024556 6 0.0 0.0 0.00 0.00 0.00 58 1012.2
20260506023109 6 0.0 0.0 0.00 0.00 0.00 60 1012.3
20260506021552 6 0.0 0.0 0.00 0.00 0.00 61 1012.5
20260506020056 6 0.0 0.0 0.00 0.00 0.00 59 1012.5
20260506014555 6 0.0 0.0 0.00 0.00 0.00 57 1012.7
20260506013100 6 0.0 0.0 0.00 0.00 0.00 60 1012.7
20260506011552 6 0.0 0.0 0.00 0.00 0.00 61 1012.6
20260506010051 7 0.0 0.0 0.00 0.00 0.00 61 1012.7
20260506004600 7 0.0 0.0 0.00 0.00 0.00 62 1012.6
20260506003055 6 0.0 0.0 0.00 0.00 0.00 66 1012.5
20260506001558 5 0.0 0.0 0.00 0.00 0.00 77 1012.3
20260505234555 6 0.0 0.0 0.00 0.00 0.00 75 1012.4
20260505233054 6 0.0 0.0 0.00 0.00 0.00 76 1012.4
20260505231554 6 0.0 0.0 0.00 0.00 0.00 77 1012.5
20260505230118 6 0.0 0.0 0.00 0.00 0.00 77 1012.5
20260505224555 6 0.0 0.0 0.00 0.00 0.00 76 1012.5
20260505223058 6 0.0 0.0 0.00 0.00 0.00 76 1012.5
20260505221559 6 0.0 0.0 0.00 0.00 0.00 76 1012.5
20260505220104 6 0.0 0.0 0.00 0.00 0.00 76 1012.6
20260505214559 7 0.0 0.0 0.00 0.00 0.00 75 1012.7
20260505213104 7 0.0 0.0 0.00 0.00 0.00 75 1012.8
20260505211603 7 0.0 0.0 0.00 0.00 0.00 74 1012.8
20260505210106 7 0.0 0.0 0.00 0.00 0.00 74 1012.8
20260505204605 7 0.0 0.0 0.00 0.00 0.00 72 1012.8
20260505203106 7 0.0 0.0 0.00 0.00 0.00 70 1012.9
20260505201558 7 0.0 0.0 0.00 0.00 0.00 68 1012.7
20260505200109 7 0.0 0.0 0.00 0.00 0.00 65 1012.8
20260505194603 7 0.0 0.0 0.00 0.00 0.00 62 1012.8
20260505193101 8 0.0 0.0 0.00 0.00 0.00 58 1012.9
20260505191557 8 0.0 0.0 0.00 0.00 0.00 56 1012.8
20260505190051 9 0.0 0.0 0.00 0.00 0.00 54 1012.5
20260505184551 10 0.0 0.0 0.00 0.00 0.00 50 1012.6
20260505183057 10 0.0 0.0 0.00 0.00 0.00 47 1012.6
20260505181557 10 0.0 0.0 0.00 0.00 0.00 46 1012.5
20260505180058 10 0.0 0.0 0.00 0.00 0.00 44 1012.5
20260505174551 11 0.0 0.0 0.00 0.00 0.00 47 1012.7
20260505173051 11 0.0 0.0 0.00 0.00 0.00 43 1012.6
20260505171556 11 0.0 0.0 0.00 0.00 0.00 40 1012.5
20260505170055 12 0.0 0.0 0.00 0.00 0.00 39 1012.6
20260505164600 12 0.0 0.0 0.00 0.00 0.00 40 1012.5
20260505163047 12 0.0 0.0 0.00 0.00 0.00 39 1012.4
20260505161603 12 0.0 0.0 0.00 0.00 0.00 35 1012.5
20260505153055 13 0.0 0.0 0.00 0.00 0.00 40 1012.3
20260505151556 13 0.0 0.0 0.00 0.00 0.00 40 1012.3
20260505150106 13 0.0 0.0 0.00 0.00 0.00 38 1012.1
20260505130111 14 0.0 0.0 0.00 0.00 0.00 47 1012.2
20260505124554 14 0.0 0.0 0.00 0.00 0.00 50 1012.4
20260505123103 15 0.0 0.0 0.00 0.00 0.00 52 1012.5
20260505121553 13 0.0 0.0 0.00 0.00 0.00 62 1012.5
20260505120104 13 0.0 0.0 0.00 0.00 0.00 63 1012.3
20260505114555 13 0.0 0.0 0.00 0.00 0.00 63 1012.4
20260505113050 14 0.0 0.0 0.00 0.00 0.00 60 1012.4
20260505111552 13 0.0 0.0 0.00 0.00 0.00 57 1012.4
20260505101559 13 0.0 0.0 0.00 0.00 0.00 61 1012.8
20260505100050 13 0.0 0.0 0.00 0.00 0.00 61 1012.8
20260505094607 13 0.0 0.0 0.00 0.00 0.00 63 1013.0
20260505093100 13 0.0 0.0 0.00 0.00 0.00 62 1013.0
20260505091559 12 0.0 0.0 0.00 0.00 0.00 66 1013.1
20260505090058 12 0.0 0.0 0.00 0.00 0.00 66 1013.0
20260505084555 12 0.0 0.0 0.00 0.00 0.00 66 1013.0
20260505083102 12 0.0 0.0 0.00 0.00 0.00 66 1013.1
20260505081557 12 0.0 0.0 0.00 0.00 0.00 66 1013.0